Retour au catalogue

STARLINK-36141

ActifCommunicationsVLEO
NORAD 67057·PAYLOAD·🇺🇸 United States

Lancé Dec 11, 2025 depuis Cape Canaveral Space Force Station

Loading…

Prochains Passages (prochaines 24 heures)

TLE

FraisSource: CelesTrak SupGP

Époque: Sep 14, 2026, 23:17 UTC

1 67057C 25294AD  26257.97062500  .00027883  00000+0  10098-2 0  2572
2 67057  43.0035  48.9331 0001472 273.3679 292.7318 15.27569590    13

Suivez STARLINK-36141 en temps réel avec AllMySat

Download on the App Store